WX2NJ-13 Weather Reports


time (UTC)temp
C
wind
direction
speed
KPH
gust
KPH
rain 1hr
cm
rain 24hr
cm
rain mn
cm
humidity
%
barometer
mb
20260504081804 8 169 0.0 3.2 0.00 0.00 0.00 68 1016.0
20260504081302 8 302 0.0 0.0 0.00 0.00 0.00 68 1016.0
20260504080305 8 197 0.0 0.0 0.00 0.00 0.00 68 1015.9
20260504070310 8 214 0.0 0.0 0.00 0.00 0.00 64 1015.4
20260504050320 8 252 0.0 0.0 0.00 0.00 0.00 57 1015.3
20260504045818 8 243 0.0 4.8 0.00 0.00 0.00 57 1015.2
20260504045320 8 108 0.0 0.0 0.00 0.00 0.00 57 1015.2
20260504044821 8 150 0.0 0.0 0.00 0.00 0.00 57 1015.2
20260504044320 8 150 0.0 0.0 0.00 0.00 0.00 57 1015.1
20260504043821 8 132 0.0 0.0 0.00 0.00 0.00 57 1015.0
20260504043322 8 132 0.0 0.0 0.00 0.00 0.00 57 1015.0
20260504042821 8 132 0.0 0.0 0.00 0.00 0.00 57 1015.0
20260504042322 8 132 0.0 0.0 0.00 0.00 0.00 57 1014.9
20260504041823 8 132 0.0 0.0 0.00 0.00 0.00 57 1014.9
20260504041322 8 132 0.0 0.0 0.00 0.00 0.00 56 1014.9
20260504040823 8 132 1.6 0.0 0.00 0.00 0.00 57 1014.9
20260504040325 8 212 0.0 0.0 0.00 0.00 0.00 57 1014.9
20260504035823 8 212 0.0 0.0 0.00 0.00 0.00 57 1014.8
20260504035324 8 305 0.0 0.0 0.00 0.00 0.00 57 1014.7
20260504034826 8 305 0.0 0.0 0.00 0.00 0.00 57 1014.6
20260504034324 8 305 0.0 0.0 0.00 0.00 0.00 56 1014.6
20260504033826 8 305 0.0 0.0 0.00 0.00 0.00 56 1014.6
20260504033327 8 305 0.0 0.0 0.00 0.00 0.00 56 1014.5
20260504032826 8 305 0.0 0.0 0.00 0.00 0.00 55 1014.6
20260504032327 8 127 0.0 0.0 0.00 0.00 0.00 55 1014.6
20260504031828 8 127 0.0 0.0 0.00 0.00 0.00 56 1014.6
20260504031327 8 127 0.0 0.0 0.00 0.00 0.00 56 1014.5
20260504030828 8 127 0.0 0.0 0.00 0.00 0.00 56 1014.5
20260504030329 8 127 0.0 0.0 0.00 0.00 0.00 57 1014.5
20260504025828 8 127 0.0 0.0 0.00 0.00 0.00 57 1014.5
20260504025329 8 188 0.0 0.0 0.00 0.00 0.00 56 1014.4
20260504024831 8 188 0.0 0.0 0.00 0.00 0.00 57 1014.5
20260504024329 8 188 0.0 0.0 0.00 0.00 0.00 56 1014.5
20260504023831 8 188 0.0 0.0 0.00 0.00 0.00 56 1014.5
20260504023332 8 188 0.0 0.0 0.00 0.00 0.00 56 1014.5
20260504022831 8 188 0.0 0.0 0.00 0.00 0.00 56 1014.5
20260504022332 8 162 0.0 0.0 0.00 0.00 0.00 55 1014.5
20260504021833 8 162 0.0 0.0 0.00 0.00 0.00 56 1014.5
20260504021332 8 180 0.0 0.0 0.00 0.00 0.00 56 1014.5
20260504020833 8 180 0.0 0.0 0.00 0.00 0.00 55 1014.5
20260504020335 8 180 0.0 0.0 0.00 0.00 0.00 56 1014.5
20260504015833 8 180 0.0 0.0 0.00 0.00 0.00 56 1014.5
20260504015335 8 180 0.0 0.0 0.00 0.00 0.00 56 1014.5
20260504014836 8 180 0.0 0.0 0.00 0.00 0.00 56 1014.5
20260504014335 8 180 0.0 0.0 0.00 0.00 0.00 55 1014.4
20260504013836 8 180 0.0 0.0 0.00 0.00 0.00 56 1014.4
20260504013337 8 180 0.0 0.0 0.00 0.00 0.00 56 1014.3
20260504012836 8 180 0.0 0.0 0.00 0.00 0.00 56 1014.3
20260504012337 8 180 0.0 0.0 0.00 0.00 0.00 55 1014.2
20260504011839 8 180 0.0 0.0 0.00 0.00 0.00 55 1014.1
20260504011337 8 180 0.0 0.0 0.00 0.00 0.00 54 1014.0
20260504010839 8 180 0.0 0.0 0.00 0.00 0.00 54 1013.9
20260504010340 9 180 0.0 0.0 0.00 0.00 0.00 54 1013.8
20260504005839 9 180 0.0 0.0 0.00 0.00 0.00 53 1013.8
20260504005340 9 180 0.0 0.0 0.00 0.00 0.00 53 1013.7
20260504004841 9 180 0.0 0.0 0.00 0.00 0.00 52 1013.7
20260504004340 10 180 0.0 0.0 0.00 0.00 0.00 52 1013.6
20260504003841 10 180 0.0 0.0 0.00 0.00 0.00 50 1013.6
20260504003342 10 180 0.0 0.0 0.00 0.00 0.00 50 1013.5
20260504002841 10 180 0.0 0.0 0.00 0.00 0.00 50 1013.5
20260504002342 11 180 0.0 0.0 0.00 0.00 0.00 49 1013.4
20260504001844 11 180 0.0 0.0 0.00 0.00 0.00 48 1013.4
20260504001342 11 180 0.0 0.0 0.00 0.00 0.00 48 1013.3
20260504000346 12 180 0.0 0.0 0.00 0.00 0.00 46 1013.3
20260503235844 12 180 0.0 0.0 0.00 0.00 0.00 44 1013.1
20260503235345 12 180 0.0 0.0 0.00 0.00 0.00 43 1013.1
20260503234846 12 180 0.0 0.0 0.00 0.00 0.00 42 1013.0
20260503234345 12 180 0.0 0.0 0.00 0.00 0.00 42 1012.9
20260503233846 13 180 0.0 0.0 0.00 0.00 0.00 41 1012.9
20260503233348 13 180 0.0 0.0 0.00 0.00 0.00 40 1012.9
20260503232845 13 180 0.0 0.0 0.00 0.00 0.00 39 1012.8
20260503232347 13 180 0.0 0.0 0.00 0.00 0.00 39 1012.7
20260503231848 13 180 0.0 0.0 0.00 0.00 0.00 38 1012.7
20260503231347 13 180 0.0 0.0 0.00 0.00 0.00 37 1012.8
20260503230848 13 180 1.6 0.0 0.00 0.00 0.00 37 1012.7
20260503230349 14 34 0.0 0.0 0.00 0.00 0.00 37 1012.8
20260503225848 14 34 0.0 0.0 0.00 0.00 0.00 35 1012.7
20260503225350 14 184 0.0 0.0 0.00 0.00 0.00 35 1012.7
20260503224851 14 41 1.6 0.0 0.00 0.00 0.00 35 1012.8
20260503224350 14 200 0.0 4.8 0.00 0.00 0.00 35 1012.7
20260503223851 15 62 0.0 0.0 0.00 0.00 0.00 34 1012.7
20260503223352 15 132 3.2 1.6 0.00 0.00 0.00 33 1012.6
20260503222851 15 245 4.8 0.0 0.00 0.00 0.00 34 1012.6
20260503222353 15 125 0.0 0.0 0.00 0.00 0.00 33 1012.6
20260503221854 15 260 1.6 1.6 0.00 0.00 0.00 33 1012.6
20260503221353 15 253 3.2 3.2 0.00 0.00 0.00 33 1012.6
20260503220854 15 51 1.6 0.0 0.00 0.00 0.00 31 1012.5
20260503220356 15 273 1.6 0.0 0.00 0.00 0.00 32 1012.4
20260503215854 15 243 3.2 6.4 0.00 0.00 0.00 31 1012.4
20260503215356 15 79 0.0 0.0 0.00 0.00 0.00 32 1012.4
20260503214857 15 238 3.2 0.0 0.00 0.00 0.00 31 1012.4
20260503214356 16 150 4.8 1.6 0.00 0.00 0.00 29 1012.3
20260503213857 16 287 3.2 4.8 0.00 0.00 0.00 31 1012.4
20260503213359 16 290 1.6 4.8 0.00 0.00 0.00 30 1012.2
20260503212857 16 219 0.0 4.8 0.00 0.00 0.00 30 1012.3
20260503212358 16 330 1.6 0.0 0.00 0.00 0.00 29 1012.3
20260503211900 17 294 0.0 1.6 0.00 0.00 0.00 29 1012.2
20260503211359 17 222 6.4 0.0 0.00 0.00 0.00 28 1012.2
20260503210900 17 215 1.6 1.6 0.00 0.00 0.00 29 1012.3
20260503210401 17 297 3.2 3.2 0.00 0.00 0.00 29 1012.3
20260503205900 17 194 4.8 1.6 0.00 0.00 0.00 29 1012.2
20260503205401 17 269 6.4 1.6 0.00 0.00 0.00 27 1012.2
20260503204903 17 259 3.2 3.2 0.00 0.00 0.00 28 1012.2
20260503204401 17 245 1.6 3.2 0.00 0.00 0.00 29 1012.1
20260503203903 17 194 4.8 1.6 0.00 0.00 0.00 29 1012.1
20260503203404 17 105 1.6 1.6 0.00 0.00 0.00 30 1012.1
20260503202903 17 293 4.8 4.8 0.00 0.00 0.00 30 1012.1
20260503202404 17 169 3.2 4.8 0.00 0.00 0.00 28 1012.1
20260503201905 17 260 1.6 0.0 0.00 0.00 0.00 30 1012.1
20260503201404 17 276 4.8 1.6 0.00 0.00 0.00 29 1012.0
20260503200905 17 280 1.6 0.0 0.00 0.00 0.00 30 1012.2
20260503200407 17 218 0.0 0.0 0.00 0.00 0.00 32 1012.2
20260503195905 16 176 6.4 4.8 0.00 0.00 0.00 32 1012.4